Location: Redwood City
(37.4850°N, 122.2350°W)
Time: 15:08:55
(UTC-08:00)

ISS - Visible Passes

Search period start: 02 March 2015 00:00
Search period end: 12 March 2015 01:00
Orbit: 397 x 407 km, 51.6° (Epoch: 02 March)

Date Brightness Start Highest point End Pass type
(mag) Time Alt. Az. Time Alt. Az. Time Alt. Az.
07 Mar -0.2 05:44:05 10° SSE 05:45:26 12° SE 05:46:55 10° ESE visible
09 Mar -1.5 06:32:26 10° SSW 06:35:18 30° SE 06:38:13 10° ENE visible
10 Mar -0.6 05:40:50 12° SSE 05:42:14 15° SE 05:44:12 10° E visible
11 Mar -3.4 06:22:59 19° SW 06:25:10 83° SE 06:28:24 10° NE visible
